Regional Weather Roundup
Issued by NWS Kansas City/Pleasant Hill, MO

Home | Current Version | Previous Version | Graphics & Text | Print | Product List | Glossary Off
Versions: 1 2 3 4 5 6 7 8 9 10 11 12 13 14 15 16 17 18 19 20 21 22 23 24 25 26 27 28 29 30 31 32 33 34 35 36 37 38 39 40 41 42 43 44 45 46 47 48 49 50

000
ASUS43 KEAX 191910
RWREAX

WEATHER ROUNDUP FOR EASTERN KANSAS AND NORTHWEST MISSOURI
NATIONAL WEATHER SERVICE KANSAS CITY/PLEASANT HILL MO
200 PM CDT THU OCT 19 2017

KSZ040-057-103>105-MOZ028-029-037-043-192000-
...KANSAS CITY METROPOLITAN AREA...

CITY           SKY/WX    TMP DP  RH WIND       PRES   REMARKS
K.C. INTL      FAIR      75  53  46 S9        30.09F
K.C. DOWNTOWN  FAIR      78  53  41 S9        30.08F
LEES SUMMIT    FAIR      78  53  41 S12       30.10F
OLATHE - IXD   FAIR      77  52  41 S14       30.10F
OLATHE - OJC   FAIR      76  51  41 S13       30.09F
LAWRENCE       FAIR      77  52  41 S6        30.07F

$$

MOZ001>008-011>017-020>025-030>033-038>040-044>046-053-054-192000-
...NORTHERN AND CENTRAL MISSOURI...

CITY           SKY/WX    TMP DP  RH WIND       PRES   REMARKS
ST. JOSEPH     FAIR      77  54  44 SE9       30.06F
MOSBY          FAIR      77  46  33 S6        30.08F
WARRENSBURG    FAIR      77  50  38 S10       30.10F
WHITEMAN AFB   SUNNY     77  53  43 SW12      30.08F
CLINTON        FAIR      77  52  41 SW9       30.13F
SEDALIA        FAIR      78  53  41 SW12      30.14F
WARSAW         NOT AVBL
CHILLICOTHE      N/A     75  55  49 S8        30.10F
KIRKSVILLE     FAIR      74  56  53 S8        30.12F

$$

MOZ041-047>049-056>058-063>065-088>090-097-192000-
...EASTERN AND SOUTHERN MISSOURI...

CITY           SKY/WX    TMP DP  RH WIND       PRES   REMARKS
ST. LOUIS INTL FAIR      77  51  40 CALM      30.17F
SPIRIT OF STL  FAIR      78  52  40 SW5       30.15F
COLUMBIA       FAIR      77  52  41 S10       30.14F
JEFFERSON CITY FAIR      77  49  37 W6        30.14F
ROLLA          FAIR      76  50  40 SW6       30.17F
OSAGE BEACH    FAIR      78  50  37 W6        30.15F
SPRINGFIELD    FAIR      78  51  38 S8        30.16F
BRANSON        PTSUNNY   79  46  31 S6        30.19F
JOPLIN         FAIR      77  53  43 SW10      30.15F
WEST PLAINS    FAIR      77  45  32 SE5       30.20F

$$

IAZ060-094-KSZ022-034>040-054-083-096-NEZ052-066-093-192000-
...KANSAS...SOUTHEAST NEBRASKA AND IOWA...

CITY           SKY/WX    TMP DP  RH WIND       PRES   REMARKS
TOPEKA         FAIR      79  53  40 S9        30.06F
MANHATTAN      FAIR      81  52  36 S12       30.03F
EMPORIA        FAIR      79  52  38 S10       30.08F
CHANUTE        FAIR      78  53  41 S13       30.11F
WICHITA        FAIR      76  51  41 S13       30.07F
OMAHA          FAIR      75  53  46 S12       30.03F
LINCOLN        FAIR      77  53  43 SE9       30.02F
FALLS CITY     FAIR      77  52  41 S10       30.04F
LAMONI         FAIR      72  55  55 VRB7      30.08F
DES MOINES     FAIR      74  48  39 SE14      30.07F

$$




USA.gov is the U.S. government's official web portal to all federal, state and local government web resources and services.